Temp
70 70 68 69 68 67 67 66 66 66 65 65 66 66 67 66 69 72 70 64 66 71 72 72 70 69 68 67 66 66 66 66 66 66 65 65 65 65 65 65 66 67 66
70 70 68 68 66 66 66 66 65 65 64 64 64 65 65 66 68 67 67 66 63 66 68 69 69 68 67 66 65 65 65 64 64 64 64 64 64 64 64 64 65 65 66
68 68 68 66 66 65 64 64 63 63 63 64 63 64 65 62 61 62 63 64 65 62 63 64 65 65 65 65 64 64 63 63 63 63 63 62 62 62 63 63 64 64 65
66 66 66 65 64 65 65 65 64 62 62 62 62 63 61 64 64 64 64 65 65 65 62 61 62 63 64 64 64 64 63 63 63 62 62 62 62 61 61 62 63 64 64
63 65 64 63 63 64 64 64 62 63 62 62 58 57 59 60 59 60 59 61 61 63 62 59 59 59 60 61 62 63 63 62 62 61 61 61 61 61 61 61 62 63 63
62 62 61 61 63 63 62 63 60 61 62 61 59 56 60 61 62 62 61 62 61 59 59 57 58 58 57 57 59 60 61 61 61 61 60 60 60 60 60 60 61 61 62
60 61 61 60 61 62 61 60 61 59 59 61 59 57 57 57 57 59 61 60 58 58 57 57 59 59 58 55 55 57 59 60 60 59 59 59 59 58 58 58 59 59 60
59 59 60 59 59 58 58 59 59 58 59 59 60 59 53 55 56 57 58 58 57 58 56 56 55 55 57 56 54 54 55 57 58 58 58 57 57 57 57 56 57 57 58
58 58 58 56 55 58 58 57 59 59 57 56 59 61 54 55 54 56 53 55 55 55 55 55 55 55 55 56 55 53 50 52 54 55 55 54 55 55 54 55 55 55 56
52 55 54 53 53 54 55 56 57 58 57 55 55 57 57 59 55 48 53 52 54 54 53 55 54 54 54 55 51 49 48 49 50 52 52 53 53 53 53 53 54 54 55
50 50 53 53 51 52 52 53 53 54 56 56 57 55 55 57 56 54 49 48 52 53 54 54 54 54 53 54 54 49 47 47 48 49 50 50 50 51 51 52 52 53 53
48 50 52 51 50 50 50 50 52 51 53 52 52 55 55 56 55 54 50 50 50 49 52 53 53 53 53 53 50 46 45 45 45 46 47 48 48 49 49 50 51 51 52
45 48 49 49 49 49 49 51 50 47 48 49 49 51 53 53 57 56 53 49 48 47 49 51 52 51 52 52 50 47 44 43 43 44 44 46 46 46 47 48 49 50 50
43 44 44 46 47 46 48 48 48 46 46 46 47 49 49 49 51 53 52 48 44 46 47 45 49 50 51 52 47 45 46 42 42 42 42 43 44 44 45 46 47 48 48
43 44 45 44 46 46 46 46 45 45 44 43 43 44 43 45 47 50 51 51 51 44 44 44 45 45 48 49 45 47 45 42 42 41 41 42 42 43 44 45 45 46 46
45 46 46 45 46 45 45 45 44 43 43 43 41 42 42 44 45 46 48 48 51 50 44 46 44 43 45 45 43 46 44 42 42 41 41 41 41 41 43 43 44 44 43
43 44 44 44 43 42 42 43 42 41 39 39 40 40 39 41 43 44 44 45 46 49 45 41 44 42 41 41 42 44 46 45 42 41 40 40 40 40 40 41 41 42 41
43 43 43 42 41 40 40 40 41 40 39 38 36 35 35 38 38 41 43 42 43 45 46 40 40 40 40 40 42 41 44 46 41 39 39 39 39 39 39 39 40 40 40
43 43 42 41 41 41 41 41 41 39 37 35 34 36 37 37 38 39 39 40 41 42 44 43 38 41 40 41 40 40 41 41 37 38 37 37 37 38 38 38 38 38 39
44 43 44 43 42 42 42 41 38 35 32 31 34 36 36 36 35 36 37 38 38 40 41 41 39 36 38 36 40 39 37 40 35 37 35 35 36 36 37 38 36 37 37
46 45 43 41 39 37 37 35 35 33 32 33 33 33 33 33 31 32 35 35 37 38 38 37 36 34 34 34 35 36 37 36 33 36 35 37 39 40 39 37 35 36 35
40 38 35 34 33 34 35 35 36 36 36 35 33 34 34 32 32 30 30 29 32 34 35 36 34 33 30 31 33 34 35 33 30 36 34 33 37 36 37 35 34 35 35
37 36 34 34 33 33 35 34 34 36 34 32 32 32 30 30 29 29 29 30 29 28 29 32 29 28 28 27 31 32 32 33 33 31 34 29 34 30 34 34 33 34 34
33 33 33 32 33 33 35 34 33 32 31 30 30 29 28 27 27 27 26 24 25 26 28 29 28 26 27 28 30 33 33 30 28 29 32 26 30 27 30 32 30 32 33
33 33 32 32 32 32 35 34 32 31 30 27 26 25 25 25 27 27 24 23 24 24 29 28 28 27 28 27 31 33 30 31 26 26 28 29 27 27 28 27 29 28 31
33 33 32 32 33 32 35 33 32 31 28 26 24 24 25 25 28 26 24 24 23 23 26 26 26 26 26 25 23 28 32 29 27 25 26 27 26 27 24 28 28 28 30
MSLP
1017.35 1017.76 1018.31 1018.66 1019.14 1019.57 1019.67 1020.14 1020.36 1020.41 1020.66 1020.75 1020.69 1020.73 1020.88 1021.24 1021.30 1021.32 1021.62 1021.67 1021.23 1020.93 1021.11 1021.34 1021.79 1022.18 1022.41 1022.65 1022.68 1022.72 1022.79 1022.80 1022.64 1022.63 1022.57 1022.49 1022.49 1022.33 1022.13 1022.04 1022.08 1022.12 1021.99
1017.30 1017.74 1018.35 1018.75 1019.15 1019.39 1019.80 1020.09 1020.40 1020.61 1020.69 1020.77 1020.87 1021.01 1021.19 1021.51 1021.68 1022.00 1022.07 1022.23 1022.22 1022.07 1021.95 1022.14 1022.26 1022.66 1022.92 1023.11 1023.19 1023.34 1023.39 1023.33 1023.47 1023.33 1022.95 1022.86 1022.90 1022.77 1022.66 1022.38 1021.99 1021.79 1021.90
1017.09 1017.65 1018.06 1018.63 1019.25 1019.47 1019.77 1020.17 1020.47 1020.81 1020.89 1021.08 1021.20 1021.41 1021.55 1022.06 1022.35 1022.51 1022.64 1022.71 1022.85 1022.96 1022.93 1023.03 1023.23 1023.44 1023.55 1023.61 1023.69 1023.76 1023.85 1023.78 1023.93 1023.83 1023.70 1023.42 1023.15 1022.85 1022.79 1022.66 1022.40 1022.08 1021.43
1017.01 1017.56 1018.05 1018.70 1019.18 1019.55 1019.65 1019.85 1020.36 1020.63 1020.85 1021.09 1021.48 1021.71 1022.15 1022.13 1022.37 1022.62 1022.85 1023.09 1023.33 1023.59 1023.96 1023.89 1023.84 1023.91 1024.01 1024.16 1024.19 1024.17 1024.17 1024.09 1023.98 1023.99 1024.01 1023.72 1023.45 1023.14 1022.94 1023.05 1022.86 1022.46 1021.79
1017.35 1017.62 1017.93 1018.57 1019.33 1019.56 1019.86 1020.08 1020.34 1020.60 1021.05 1021.30 1021.94 1022.37 1022.57 1022.95 1023.31 1023.52 1023.71 1023.96 1024.29 1024.39 1024.50 1024.91 1024.81 1024.77 1024.77 1024.79 1024.75 1024.60 1024.54 1024.36 1024.24 1024.03 1024.22 1024.06 1023.73 1023.67 1023.20 1022.75 1022.71 1022.31 1022.16
1017.39 1017.67 1018.28 1018.57 1018.87 1019.08 1019.45 1019.95 1020.48 1020.97 1021.18 1021.42 1022.00 1022.80 1023.27 1023.49 1023.39 1023.61 1023.77 1024.03 1024.68 1025.02 1025.21 1025.41 1025.31 1025.53 1025.41 1025.56 1025.59 1025.42 1025.21 1024.82 1024.63 1024.50 1024.48 1024.45 1024.10 1023.62 1023.43 1023.39 1023.00 1022.51 1022.12
1017.34 1017.56 1017.99 1018.51 1018.83 1019.04 1019.24 1019.53 1019.95 1020.55 1021.12 1021.57 1021.63 1022.87 1023.59 1023.89 1023.89 1024.07 1024.31 1024.66 1025.05 1025.15 1025.63 1025.72 1025.70 1025.69 1025.74 1026.08 1026.29 1025.99 1025.61 1025.29 1025.06 1025.17 1025.05 1024.59 1024.29 1024.07 1023.87 1023.82 1023.82 1023.03 1022.62
1017.63 1017.71 1017.98 1018.35 1018.71 1019.09 1019.44 1019.62 1019.68 1020.16 1021.02 1021.36 1021.08 1021.90 1023.26 1024.12 1024.31 1024.50 1024.50 1024.83 1025.15 1025.38 1025.68 1025.91 1026.22 1026.22 1026.27 1026.57 1026.87 1026.75 1026.33 1025.98 1025.57 1025.32 1025.63 1025.23 1024.83 1024.71 1024.35 1024.31 1024.13 1023.45 1023.22
1017.67 1017.92 1018.21 1018.55 1018.80 1019.20 1019.57 1019.80 1019.79 1019.81 1020.16 1021.33 1021.25 1020.90 1021.75 1021.99 1023.58 1024.71 1025.17 1025.39 1025.65 1025.65 1025.74 1025.95 1026.25 1026.64 1026.75 1026.86 1026.77 1026.91 1027.11 1026.93 1026.43 1026.04 1026.05 1025.89 1025.33 1025.05 1024.97 1024.74 1024.10 1024.01 1023.51
1017.72 1018.08 1018.63 1018.89 1019.06 1019.05 1019.63 1019.97 1020.15 1020.10 1020.19 1020.48 1021.41 1021.33 1021.39 1021.33 1022.35 1024.09 1025.20 1025.64 1025.78 1025.99 1026.36 1026.04 1025.89 1026.52 1027.05 1027.34 1027.60 1028.04 1027.60 1027.45 1027.25 1026.77 1026.53 1026.41 1026.04 1025.61 1025.29 1024.76 1024.39 1024.13 1023.90
1017.43 1018.27 1018.43 1019.14 1019.63 1019.47 1019.81 1020.04 1020.37 1020.54 1020.90 1020.87 1020.99 1021.33 1021.59 1021.80 1022.00 1022.25 1023.79 1025.09 1025.88 1026.21 1026.47 1026.49 1026.25 1026.45 1027.13 1027.30 1027.74 1028.07 1028.11 1028.03 1027.82 1027.58 1027.13 1026.99 1026.57 1026.09 1025.64 1025.19 1024.67 1024.27 1024.36
1020.22 1018.85 1018.68 1019.62 1020.12 1020.17 1020.37 1020.52 1020.59 1020.80 1020.97 1020.79 1021.44 1021.65 1021.70 1021.49 1021.90 1021.77 1022.89 1024.34 1024.78 1026.38 1026.72 1027.01 1026.99 1026.92 1027.19 1027.11 1027.95 1028.11 1028.28 1028.31 1028.08 1028.12 1027.90 1027.36 1026.97 1026.53 1026.03 1025.43 1025.28 1024.91 1024.79
1019.85 1021.18 1019.88 1019.76 1020.29 1020.51 1020.86 1020.87 1021.16 1021.53 1021.22 1020.99 1021.69 1021.79 1022.33 1022.31 1022.31 1022.30 1022.18 1023.72 1024.43 1025.95 1026.61 1027.04 1027.39 1027.27 1027.31 1027.41 1028.01 1027.87 1028.69 1028.76 1028.78 1028.58 1028.23 1027.77 1027.53 1027.46 1026.69 1026.23 1025.80 1025.57 1024.76
1019.70 1021.90 1020.90 1020.55 1020.79 1021.13 1021.20 1021.18 1021.46 1021.19 1022.35 1022.19 1022.01 1021.65 1022.14 1022.83 1022.83 1022.45 1022.14 1023.01 1024.36 1025.02 1026.02 1026.57 1027.84 1027.43 1027.42 1027.61 1028.05 1027.97 1028.71 1029.07 1029.48 1029.28 1028.78 1028.46 1028.05 1027.90 1027.17 1026.87 1026.16 1025.67 1025.09
1018.39 1019.53 1020.70 1020.78 1021.33 1021.66 1021.81 1021.76 1021.87 1022.73 1023.34 1022.86 1022.99 1022.69 1022.62 1023.43 1023.31 1023.09 1022.98 1022.65 1023.29 1023.49 1024.73 1026.37 1027.46 1027.87 1027.75 1027.45 1028.11 1027.97 1028.59 1028.99 1029.70 1029.67 1029.30 1029.00 1028.70 1028.12 1027.63 1027.00 1026.43 1026.03 1025.79
1018.50 1018.49 1020.24 1020.85 1021.78 1021.58 1021.62 1022.55 1022.30 1022.74 1023.52 1023.54 1023.81 1023.69 1024.01 1023.93 1023.58 1023.71 1023.81 1023.51 1023.60 1023.44 1024.27 1025.61 1027.32 1027.77 1027.79 1027.70 1028.20 1028.24 1028.62 1029.22 1029.29 1029.54 1029.51 1029.28 1029.11 1028.68 1027.83 1027.57 1026.95 1026.61 1026.46
1018.68 1019.21 1019.54 1021.07 1021.52 1021.72 1022.21 1023.11 1023.58 1023.88 1024.02 1024.68 1024.17 1024.70 1024.48 1024.53 1024.37 1024.42 1024.07 1024.06 1024.08 1023.93 1024.24 1026.23 1027.30 1028.01 1028.11 1028.29 1028.30 1028.31 1028.61 1028.65 1029.33 1029.55 1029.33 1029.51 1029.42 1028.93 1028.33 1028.04 1027.45 1027.13 1026.81
1019.09 1019.61 1020.48 1021.04 1021.65 1022.21 1022.90 1023.02 1023.66 1024.19 1024.23 1024.96 1025.39 1025.34 1025.12 1025.01 1025.00 1024.85 1024.59 1024.31 1024.35 1024.73 1024.43 1025.73 1026.71 1027.86 1027.92 1028.59 1028.37 1028.57 1028.76 1028.93 1029.23 1029.55 1029.81 1029.67 1029.59 1029.23 1028.73 1028.16 1027.82 1027.59 1027.45
1019.39 1019.75 1020.41 1020.93 1021.45 1021.97 1023.03 1023.65 1023.93 1024.44 1025.03 1025.52 1025.73 1025.84 1025.64 1025.08 1025.34 1025.49 1025.06 1024.85 1024.92 1025.41 1025.46 1025.43 1026.17 1027.35 1027.58 1028.25 1028.40 1028.67 1028.84 1029.03 1029.63 1029.93 1029.87 1030.13 1029.75 1029.45 1029.08 1028.68 1028.17 1028.17 1028.11
1019.15 1019.61 1020.44 1020.81 1021.34 1022.03 1022.85 1023.59 1024.04 1024.57 1025.39 1025.99 1026.37 1026.22 1026.01 1025.61 1025.60 1025.61 1025.60 1025.42 1025.67 1025.58 1025.69 1025.65 1026.55 1026.92 1027.52 1028.47 1028.32 1028.31 1028.76 1029.06 1029.69 1029.95 1030.27 1030.41 1030.06 1029.85 1029.61 1028.90 1028.67 1028.66 1028.85
1019.14 1019.93 1020.74 1021.35 1021.82 1022.64 1023.38 1023.79 1023.85 1024.44 1025.32 1025.90 1026.23 1026.53 1026.41 1026.39 1026.47 1026.26 1026.40 1026.37 1026.06 1025.78 1025.66 1026.13 1026.49 1026.99 1027.60 1027.97 1028.13 1028.73 1028.46 1029.01 1029.86 1029.87 1030.13 1030.26 1029.77 1029.63 1029.51 1029.20 1029.31 1029.42 1029.61
1019.71 1020.36 1021.06 1021.61 1022.26 1022.82 1023.19 1023.58 1023.71 1024.28 1025.13 1025.68 1026.14 1026.15 1026.43 1026.99 1027.00 1027.08 1027.04 1027.20 1026.69 1026.31 1026.18 1026.23 1026.70 1027.11 1028.02 1028.30 1028.59 1028.39 1028.31 1028.78 1029.58 1030.07 1030.09 1030.51 1030.38 1030.07 1030.00 1030.05 1030.12 1030.06 1029.99
1019.93 1020.56 1021.27 1021.77 1022.03 1022.49 1023.02 1023.52 1024.18 1024.67 1025.30 1025.78 1025.85 1026.27 1026.90 1027.41 1027.81 1027.71 1027.66 1027.45 1027.31 1027.18 1027.23 1026.99 1027.35 1028.01 1028.38 1028.96 1028.77 1028.48 1028.64 1028.93 1029.25 1030.12 1030.17 1030.71 1030.75 1030.74 1030.74 1030.82 1030.70 1030.49 1030.37
1019.91 1020.48 1021.17 1021.62 1022.05 1022.49 1022.86 1023.64 1024.37 1024.85 1025.34 1025.85 1026.07 1026.20 1026.77 1027.36 1027.99 1028.24 1028.13 1028.31 1028.12 1028.07 1028.03 1028.08 1028.37 1029.10 1029.23 1029.16 1028.73 1028.67 1028.99 1029.75 1030.33 1030.80 1030.66 1030.55 1031.05 1031.23 1031.27 1031.49 1031.60 1031.19 1030.87
1019.77 1020.32 1020.88 1021.45 1021.71 1022.35 1022.85 1023.60 1024.21 1024.88 1025.46 1026.00 1026.59 1026.51 1026.99 1027.47 1027.73 1028.13 1028.38 1028.35 1028.48 1028.79 1028.70 1028.91 1029.10 1029.35 1029.44 1029.27 1028.99 1028.90 1029.18 1029.18 1029.80 1030.59 1031.05 1030.50 1031.11 1031.27 1031.52 1031.98 1032.05 1032.08 1031.65
1019.37 1020.17 1020.78 1021.37 1021.52 1021.97 1022.54 1023.15 1023.88 1024.57 1025.34 1026.05 1026.68 1027.12 1027.19 1027.32 1027.37 1028.00 1028.42 1028.49 1028.46 1028.98 1029.07 1029.19 1029.63 1029.93 1029.79 1029.93 1029.99 1029.65 1029.16 1029.10 1029.71 1030.18 1030.90 1030.61 1030.98 1030.99 1031.30 1032.06 1032.38 1032.31 1032.06
Wind_Speed
8 7 6 5 5 4 5 5 5 5 5 6 6 6 7 8 7 5 5 14 16 16 21 22 22 20 21 20 20 19 18 19 18 17 17 17 16 16 14 12 10 10 10
8 7 6 6 5 5 5 5 5 5 5 5 6 6 7 7 8 8 7 8 18 19 20 20 20 18 17 17 18 17 17 18 17 16 16 15 14 14 13 12 10 10 11
10 8 7 6 5 5 7 6 6 5 5 4 7 6 7 8 8 9 7 7 10 18 19 21 19 18 17 17 17 17 16 15 13 13 12 12 12 12 11 11 10 8 10
10 8 7 5 6 5 5 6 5 5 6 5 6 6 7 8 10 10 8 7 8 9 15 19 19 18 17 16 16 15 14 13 13 14 13 13 12 12 11 11 10 10 9
9 7 6 6 6 5 4 4 4 4 6 7 8 8 8 7 8 7 10 10 10 9 9 17 20 19 18 18 17 16 15 15 15 15 15 14 14 15 14 12 11 13 14
9 7 6 7 7 6 6 5 6 6 7 10 10 9 8 7 7 7 9 8 9 10 9 9 8 12 19 19 19 17 16 15 15 15 15 14 15 17 17 17 17 16 14
9 9 6 7 6 6 7 8 10 12 9 11 9 9 8 7 7 6 6 6 8 9 9 8 6 6 8 17 18 17 16 16 16 15 15 15 16 16 17 17 18 18 17
7 7 8 7 7 7 9 9 10 8 6 6 5 7 7 5 5 5 5 5 7 7 8 9 9 9 8 8 13 17 17 17 17 17 15 16 17 17 17 17 17 17 18
7 7 7 6 6 5 7 7 7 7 7 4 6 1 5 4 7 4 5 4 6 6 7 8 9 9 9 7 8 12 16 16 16 16 15 16 16 15 16 16 16 16 17
6 7 6 6 6 5 5 5 4 4 5 6 4 1 3 7 4 6 4 5 5 6 5 5 8 9 8 7 12 13 15 15 16 16 16 15 15 16 16 16 16 16 16
8 6 7 4 4 4 4 5 4 4 1 2 3 3 3 3 4 4 6 6 5 4 4 4 5 7 7 6 6 10 13 14 14 14 14 14 16 16 16 17 16 16 17
7 5 8 5 5 5 5 4 5 5 3 4 2 2 3 3 5 4 4 8 7 5 4 4 4 4 5 6 9 12 13 14 14 15 15 16 17 17 18 18 17 17 17
3 3 5 6 5 5 5 5 5 5 5 6 4 4 1 2 2 3 5 7 5 6 4 3 3 4 4 4 7 10 12 14 14 13 14 16 16 16 16 17 17 17 18
6 3 3 4 5 5 5 6 4 6 4 4 7 7 5 3 2 3 4 8 6 4 5 6 4 3 4 3 9 9 9 12 11 12 13 14 15 15 16 16 16 18 20
9 7 6 7 6 5 5 6 5 5 4 4 5 6 6 3 3 3 3 5 5 7 7 7 4 4 4 4 5 5 5 9 8 9 12 13 13 15 15 17 18 17 20
9 11 8 7 5 5 7 5 6 5 5 5 4 6 4 3 4 3 3 3 2 3 5 4 3 5 3 4 5 4 6 7 6 8 9 12 12 14 16 16 17 17 19
8 9 9 8 7 7 6 6 5 5 6 5 5 4 5 3 3 2 4 4 3 2 5 4 4 5 5 4 5 4 3 3 5 8 10 11 10 12 15 17 17 17 19
8 9 8 8 7 6 5 8 7 6 7 5 4 4 4 2 3 2 2 5 4 3 4 10 8 5 5 4 5 5 2 2 4 9 9 11 11 12 15 15 16 16 16
10 9 9 9 9 8 7 7 7 7 6 5 3 1 3 3 3 1 3 4 3 2 3 5 6 5 5 3 5 4 4 5 5 8 9 10 11 12 14 15 16 16 17
13 11 11 11 10 9 9 9 9 9 8 5 1 2 1 2 3 2 2 3 4 4 4 5 5 5 4 4 3 4 5 4 5 4 8 7 8 11 13 15 15 17 17
10 11 11 9 8 7 6 9 9 10 9 7 6 5 5 6 6 5 1 2 5 4 5 5 5 5 4 4 4 3 4 6 4 3 3 4 4 5 8 13 11 16 16
11 10 9 9 8 5 15 14 10 8 8 9 8 7 8 8 8 9 6 3 2 3 5 4 4 5 5 4 4 4 5 6 5 2 4 4 3 5 6 9 12 14 15
9 9 8 8 8 7 15 15 14 9 9 8 9 7 5 5 4 6 11 12 13 12 7 5 7 5 5 2 3 6 5 5 3 4 5 4 3 6 5 7 16 14 15
10 9 8 8 8 6 15 16 15 8 8 8 8 8 6 5 5 5 6 7 9 9 9 7 9 6 4 4 5 3 4 6 5 4 3 3 3 5 4 4 14 15 15
8 8 8 9 9 8 17 18 14 9 8 7 4 7 6 6 10 10 7 9 8 7 7 11 11 9 10 7 4 5 6 6 5 4 1 2 4 5 4 5 4 12 14
9 8 8 8 13 11 19 20 14 8 9 6 6 5 9 8 12 11 7 8 8 7 8 8 6 8 8 10 8 3 5 4 4 4 3 3 6 3 3 4 4 4 4
Wind_Direction
156 150 143 139 131 131 126 122 121 114 109 101 95 97 93 87 87 85 79 38 49 79 91 90 84 77 71 66 62 58 55 52 50 52 50 48 47 45 41 33 27 22 17
160 157 150 147 142 141 133 133 131 125 117 110 100 98 101 97 95 99 93 63 61 67 74 76 76 74 71 67 62 56 50 49 43 42 43 40 36 36 26 20 32 33 25
165 162 155 152 145 141 134 128 126 118 110 100 97 92 102 95 105 94 80 76 71 63 69 70 69 66 61 62 60 54 46 41 35 28 24 26 26 24 17 10 11 12 33
165 161 154 150 146 151 144 136 127 107 110 110 101 97 95 110 108 108 107 103 99 94 78 82 79 75 68 60 55 49 48 44 37 27 19 19 20 21 16 3 1 360 13
158 158 154 141 152 143 142 141 124 123 122 105 98 91 91 86 89 90 93 92 87 86 89 79 76 71 68 60 53 49 47 44 45 39 29 30 29 22 24 20 4 6 1
157 150 146 148 156 150 142 130 122 111 124 118 105 85 83 87 96 103 105 102 95 89 87 85 83 74 66 58 49 43 40 41 39 39 35 28 32 32 26 15 13 11 5
155 157 153 152 159 162 147 142 133 135 124 131 116 101 91 89 90 97 98 104 103 99 90 86 86 81 75 63 49 45 43 41 42 40 34 33 31 27 22 17 4 1 358
155 157 159 161 163 150 154 157 156 145 129 170 139 133 154 141 88 78 108 122 117 112 100 87 84 77 69 67 54 49 44 40 38 34 28 26 24 20 16 10 1 1 358
154 156 160 155 154 161 170 171 170 162 150 172 193 200 161 166 142 111 95 116 124 111 106 105 90 77 71 66 64 61 44 38 38 37 31 26 23 21 14 9 8 360 358
136 147 146 153 156 146 160 169 177 180 162 167 166 104 26 125 165 157 142 121 125 122 113 109 102 87 76 68 67 55 52 45 37 35 29 25 23 19 16 13 10 5 3
140 149 136 134 124 113 115 134 144 152 181 176 167 139 128 106 131 149 163 157 139 131 111 113 105 101 92 83 79 69 56 46 40 39 37 33 28 22 17 15 10 11 4
343 112 119 110 100 96 103 104 102 102 133 115 107 163 191 188 184 159 132 163 156 140 118 121 117 114 102 94 86 78 65 53 47 39 32 33 29 23 20 17 13 13 8
75 335 122 127 111 108 100 96 96 101 89 95 137 115 108 63 148 133 126 147 162 152 152 129 127 139 115 105 92 81 65 56 47 40 36 33 30 22 22 16 17 14 15
133 216 45 71 96 104 115 113 112 87 105 133 132 117 108 71 136 165 146 155 149 157 171 145 161 133 138 118 92 92 90 69 51 42 39 35 31 24 25 19 22 23 22
152 140 146 136 128 113 101 93 87 108 118 90 75 88 88 107 89 87 142 167 196 173 176 173 162 139 148 125 90 88 98 104 90 63 41 36 30 28 26 22 20 30 26
144 136 138 125 124 105 110 109 99 89 100 88 67 81 91 92 86 93 110 124 169 174 148 146 158 150 130 119 101 143 114 135 99 90 71 40 32 26 29 25 23 34 35
130 129 125 141 128 110 104 105 96 98 98 90 82 98 90 79 91 120 119 114 118 150 141 117 126 138 119 128 127 165 139 134 108 93 76 58 36 33 31 27 29 38 39
131 136 138 131 118 123 148 140 144 137 119 107 102 99 99 114 102 94 123 112 115 112 152 153 147 154 142 137 121 140 128 108 116 89 79 62 40 36 32 31 29 41 44
147 144 145 143 146 144 142 139 133 119 108 94 86 206 183 139 149 139 96 111 114 132 159 165 133 158 129 144 153 141 118 123 90 103 86 65 49 40 36 29 27 51 38
152 153 155 151 150 148 150 143 134 118 107 94 100 71 63 90 125 105 102 124 156 159 145 135 139 133 140 132 164 181 161 144 128 99 80 67 60 52 36 32 51 53 36
157 149 148 138 131 136 146 143 137 138 140 137 118 96 61 63 66 61 298 184 177 156 144 148 143 143 143 155 180 151 173 134 117 129 117 57 51 46 42 29 70 58 47
142 137 137 140 143 148 158 154 149 147 147 146 137 112 101 84 80 71 86 91 65 159 144 147 130 134 128 142 165 166 157 167 163 124 127 76 29 56 55 24 70 68 59
149 147 145 152 149 149 162 156 151 149 148 148 139 132 120 120 104 100 84 89 82 80 80 123 123 110 117 112 159 154 160 194 149 131 152 99 58 74 48 32 36 63 60
159 158 155 149 146 159 164 158 154 148 149 152 148 137 134 147 160 147 115 101 89 79 84 89 97 99 74 138 148 124 152 127 123 130 258 140 101 76 60 48 23 39 54
155 159 158 155 153 160 169 164 158 154 150 139 142 134 148 169 170 154 142 129 114 95 105 110 105 95 73 71 160 159 162 172 145 153 165 160 153 107 74 54 37 26 42
159 156 158 167 169 166 177 168 162 159 156 151 151 156 166 174 170 162 160 154 134 127 131 118 109 88 78 65 60 297 187 163 145 159 132 197 167 168 141 70 45 33 41